Hourly Data Report for October 01, 2016

All times are specified in Local Standard Time (LST). Add 1 hour to adjust for Daylight Saving Time where and when it is observed.

HALL BEACH A
NUNAVUT

68°46'33.000" N
81°14'33.000" W
9.10 m
2402354
71293
YUX

Download Data

Hourly Data (October 2016)
Hourly Data Report for October 1, 2016
Temp Definition
°C
Dew Point Temp Definition
°C
Rel Hum Definition
%
Wind Dir Definition
10's deg

Wind Spd Definition
km/h
Visibility Definition
km
Stn Press Definition
kPa
Hmdx Definition


Wind Chill Definition


Weather Definition


TIME
00:00 Legend Double Dagger -0.5 -1.6 92 33 17 16.1 101.43   -5 LegendNANA
01:00 Legend Double Dagger -0.4 -1.5 92 32 17 16.1 101.46   -5 LegendNANA
02:00 Legend Double Dagger -0.7 -1.6 94 33 15 16.1 101.49   -5 LegendNANA
03:00 Legend Double Dagger -0.7 -1.6 94 32 17 16.1 101.51   -6 LegendNANA
04:00 Legend Double Dagger -0.9 -1.9 93 31 15 16.1 101.54   -6 LegendNANA
05:00 Legend Double Dagger -0.9 -1.3 97 31 15 16.1 101.55   -6 LegendNANA
06:00 Legend Double Dagger -1.6 -1.9 98 30 13 16.1 101.53   -6 LegendNANA
07:00 Legend Double Dagger -1.4 -1.7 98 31 15 16.1 101.55   -6 LegendNANA
08:00 Legend Double Dagger -1.3 -2.4 92 32 28 16.1 101.53   -8 LegendNANA
09:00 Legend Double Dagger -0.9 -2.0 92 31 24 16.1 101.53   -7 LegendNANA
10:00 Legend Double Dagger -0.2 -1.8 89 32 26 16.1 101.50   -6 LegendNANA
11:00 Legend Double Dagger -0.2 -2.4 85 32 30 16.1 101.50   -7 LegendNANA
12:00 Legend Double Dagger -0.5 -2.7 85 33 30 16.1 101.50   -7 LegendNANA
13:00 Legend Double Dagger -1.5 -3.4 87 32 28 16.1 101.52   -8 LegendNANA
14:00 Legend Double Dagger -1.7 -3.6 87 32 24 16.1 101.50   -8 LegendNANA
15:00 Legend Double Dagger -1.8 -4.9 80 32 28 16.1 101.49   -9 LegendNANA
16:00 Legend Double Dagger -2.3 -5.0 82 34 28 16.1 101.52   -9 LegendNANA
17:00 Legend Double Dagger -2.8 -5.3 83 32 30 16.1 101.51   -10 LegendNANA
18:00 Legend Double Dagger -2.5 -5.0 83 33 26 16.1 101.49   -9 LegendNANA
19:00 Legend Double Dagger -2.3 -4.9 83 33 30 16.1 101.49   -9 LegendNANA
20:00 Legend Double Dagger -2.1 -5.2 79 34 32 16.1 101.44   -9 LegendNANA
21:00 Legend Double Dagger -2.1 -4.4 84 32 34 16.1 101.43   -10 LegendNANA
22:00 Legend Double Dagger -2.3 -4.3 86 33 32 16.1 101.43   -10 LegendNANA
23:00 Legend Double Dagger -2.8 -4.8 86 32 32 16.1 101.42   -10 LegendNANA

Notes on Data Quality.

Legend

  • E = Estimated
  • M = Missing
  • NA = Not Available
  • ‡ = Partner data that is not subject to review by the National Climate Archives
Date modified: